Location: Asheville, NC
(35.6000°N, 82.5500°W)
Time: 17:20:59

LilacSat-2 - Pass Details

Date: 10 March 2018
Orbit: 515 x 536 km, 97.5° (Epoch: 18 March)

Event Time Altitude Azimuth Distance (km) Brightness Sun altitude
Rises 05:59:25 0° 22° (NNE) 2,670 ? -10.7°
Reaches altitude 10° 06:01:40 10° 31° (NNE) 1,779 ? -10.2°
Maximum altitude 06:05:12 34° 98° (E) 883 ? -9.5°
Drops below altitude 10° 06:08:43 10° 164° (SSE) 1,776 ? -8.8°
Sets 06:10:57 0° 174° (S) 2,664 ? -8.3°
